Home > Weather > Simi Valley > Past weeks

Flag for U.S.A. Weather for the Past 2 Weeks in Simi Valley, California, U.S.A.

Now
53 °F

Clear.


Feels Like: 53 °F
Forecast: 53 / 83 °F
Wind: 3 mph from Northwest

Location: Van Nuys Airport

Current Time: Feb 13, 2016 at 5:45:38 AM

Latest Report: Feb 13, 2016 at 4:51 AM


Visibility: 10 mi

Pressure: 30.07 "Hg

Humidity: 59%

Dew point: 39 °F

Location of Simi ValleyLocation

Historic Weather in Simi Valley — Graph

°F

Simi Valley Temperature Yesterday

Maximum temperature yesterday: 87 °F (at 2:51 PM)
Minimum temperature yesterday: 50 °F (at 5:51 AM)
Average temperature yesterday: 67 °F

High & Low Weather Summary for the Past Weeks

 TemperatureHumidityPressure
High87 °F (Feb 11, 2:51 PM)90% (Jan 30, 6:51 AM)30.35 "Hg (Jan 30, 6:51 AM)
Low39 °F (Feb 1, 6:51 AM)8% (Feb 7, 1:51 PM)29.56 "Hg (Jan 31, 1:51 PM)
Average62 °F36%30.10 "Hg
* Reported Jan 29 4:51 AM — Feb 13 4:51 AM, Simi Valley, Weather by CustomWeather, © 2016

Note: Actual official high and low records may vary slightly from our data, if they occured in-between our weather recording intervals... More about our weather records

Advertising

Simi Valley Weather History for the Previous 24 Hours

 ConditionsComfort  
Time TempWeatherWind HumidityBarometerVisibility
4:51 AM
Sat, Feb 13
53 °FClear.3 mph59%30.07 "Hg10 mi
3:51 AM52 °FClear.No wind61%30.06 "Hg10 mi
2:51 AM54 °FClear.No wind57%30.06 "Hg10 mi
1:51 AM55 °FClear.No wind55%30.06 "Hg10 mi
12:51 AM57 °FClear.No wind49%30.07 "Hg10 mi
11:51 PM
Fri, Feb 12
61 °FClear.No wind41%30.07 "Hg10 mi
10:51 PM59 °FClear.No wind48%30.06 "Hg10 mi
9:51 PM62 °FClear.No wind39%30.06 "Hg10 mi
8:51 PM65 °FClear.No wind34%30.06 "Hg10 mi
7:51 PM69 °FClear.No wind29%30.05 "Hg10 mi
6:51 PM73 °FClear.3 mph25%30.04 "Hg10 mi
5:51 PM77 °FClear.3 mph24%30.03 "Hg10 mi
4:51 PM80 °FSunny.6 mph20%30.01 "Hg10 mi
3:51 PM80 °FSunny.10 mph22%30.00 "Hg10 mi
2:51 PM87 °FSunny.No wind12%30.00 "Hg10 mi
1:51 PM85 °FSunny.No wind16%30.01 "Hg10 mi
12:51 PM82 °FSunny.3 mph18%30.04 "Hg10 mi
11:51 AM82 °FSunny.5 mph16%30.08 "Hg10 mi
10:51 AM78 °FSunny.No wind21%30.10 "Hg10 mi
9:51 AM70 °FSunny.No wind28%30.11 "Hg10 mi
8:51 AM63 °FSunny.No wind37%30.11 "Hg10 mi
7:51 AM56 °FSunny.No wind49%30.11 "Hg10 mi
6:51 AM50 °FSunny.No wind61%30.10 "Hg10 mi
5:51 AM50 °FClear.No wind61%30.09 "Hg10 mi
Weather by CustomWeather, © 2016

See weather overviewHow to use our weather pages